Location: Huntsville
(34.7300°N, 86.5860°W)
Time: 01:59:12
(UTC-06:00)

Daily predictions for brighter satellites

Satellite Brightness Start Highest point End
(mag) Time Altitude Azimuth Time Altitude Azimuth Time Altitude Azimuth
CZ-3 R/B 4.3 02:39:54 10° W 03:30:33 51° SW 03:42:09 10° SE
Cosmos 2237 Rocket 4.3 03:56:09 18° SSE 03:56:09 18° SSE 03:57:35 10° SSE
SL-16 R/B 3.5 03:57:16 35° ENE 03:57:23 35° ENE 04:02:31 10° SE
USA 229 DEB 3.9 04:13:19 58° N 04:14:35 69° ENE 04:21:48 10° SE
USA 229 4.0 04:13:22 57° N 04:14:41 68° ENE 04:21:53 10° SE
Centaur AC-42 4.1 04:18:21 16° S 04:18:21 16° S 04:22:01 10° SE
Tsikada Rocket 4.0 04:19:15 65° NNE 04:20:12 79° E 04:26:28 10° S
NOAA 6 4.5 04:26:06 10° NNE 04:31:14 60° E 04:36:21 10° S
BREEZE-M DEB (TANK) 3.7 04:49:40 45° S 04:49:40 45° S 04:51:53 10° SSE
ATLAS 3B CENTAUR R/B 4.4 04:46:50 10° SSW 04:51:28 27° SE 05:01:38 10° E
Tiangong 2 2.9 04:53:42 32° ESE 04:53:42 32° ESE 04:55:49 10° ENE
ERBS 3.7 04:59:49 32° NE 05:00:06 33° NE 05:03:13 10° ESE
Cosmos 2151 3.3 04:59:21 18° N 05:02:26 65° E 05:06:39 10° SSE
IUS-9 SRM-1 4.0 05:02:39 25° SW 05:04:08 28° SSW 05:06:45 10° SE
DELTA 2 R/B (1) 3.5 05:04:53 44° WSW 05:06:42 87° NNW 05:12:17 10° ENE
NOSS 3-1 (C) 4.3 05:01:36 15° NNW 05:08:21 69° ENE 05:16:43 10° SE
COSMO-SKYMED 1 2.4 05:08:37 10° S 05:12:57 84° W 05:16:07 18° NNW
Cosmos 1538 Rocket 3.9 05:13:23 17° NNW 05:17:35 80° WSW 05:22:55 10° SSE
CZ-2C R/B 4.4 05:16:09 10° NE 05:20:05 28° E 05:24:00 10° SSE
IDEFIX/ARIANE 42P 4.4 05:16:44 10° NNE 05:21:28 33° E 05:26:10 10° SSE
CSL-04 Rocket 3.9 05:16:11 10° NNE 05:21:29 70° ESE 05:26:42 10° S
Cosmos 304 Rocket 4.1 05:22:03 36° WNW 05:23:05 41° WSW 05:27:33 10° S
Cosmos 2233 Rocket 4.4 05:17:47 10° SW 05:23:31 38° WNW 05:29:20 10° N
CZ-4 R/B 3.4 05:21:02 10° NE 05:24:42 32° E 05:28:25 10° SSE
Ariane Rocket 2.9 05:20:08 10° NNE 05:25:16 87° W 05:30:21 10° SSW
Genesis I 3.6 05:24:37 20° NNW 05:27:09 61° ENE 05:31:01 10° SE
Cosmos 2227 4.2 05:22:53 10° SW 05:28:21 52° WNW 05:33:50 10° N
Cosmos 1500 Rocket 4.1 05:28:40 32° WNW 05:29:33 35° W 05:33:36 10° SSW
GPS 2-05 Rocket1 2.6 05:30:13 48° WNW 05:30:57 73° N 05:34:15 10° E
CZ-3 Stage 3 3.0 05:28:58 24° WSW 05:31:33 55° S 05:47:16 10° ESE
Cosmos 1328 4.3 05:31:01 33° WNW 05:31:38 35° W 05:35:17 10° SSW
SL-16 R/B 3.1 05:39:13 22° WNW 05:41:17 27° WSW 05:45:57 10° SSW
OAO 2 Rocket 3.4 05:38:34 23° W 05:41:30 64° SSW 05:46:22 10° ESE
YAOGAN 3 4.5 05:37:46 10° N 05:42:08 85° WNW 05:46:29 10° SSW
ISS -2.6 05:41:57 29° W 05:42:56 37° SW 05:45:58 10° SSE
Sich 1 4.0 05:38:49 10° N 05:43:03 49° E 05:47:13 10° SSE
Cosmos 2034 Rocket 3.9 05:41:10 10° S 05:47:21 79° W 05:53:37 10° N
Cosmos 1633 Rocket 4.0 05:43:59 10° N 05:48:13 49° E 05:52:24 10° SSE
Coronas F rocket 3.2 05:46:36 10° NNE 05:48:43 27° E 05:50:51 10° SE
PAYLOAD A 3.8 05:44:35 10° N 05:49:34 84° WNW 05:54:21 10° SSW
Cosmos 389 Rocket 2.8 05:49:14 10° S 05:52:53 73° E 05:56:33 10° NNE
Nadezhda 4 Rocket 4.4 05:48:09 10° N 05:54:27 67° E 06:00:40 10° SSE
Cosmos 1703 3.2 05:51:25 10° NNW 05:55:18 65° W 05:59:12 10° S
Meteor 1-28 Rocket 3.9 05:53:44 10° SSW 05:57:09 33° W 06:00:34 10° NNW
Gbstr 26 Del rocket 3.7 05:54:36 10° SW 05:59:49 85° NW 06:06:26 10° NE
Cosmos 1271 Rocket 4.1 05:58:20 10° WSW 06:00:52 17° WNW 06:03:26 10° NNW
Cosmos 2344 3.7 05:54:30 10° SSW 06:02:14 88° WNW 06:10:34 10° NNE
OPS 8737 4.2 05:59:36 10° SW 06:03:08 74° WNW 06:06:18 10° NNE
Cosmos 773 Rocket 4.4 05:58:48 10° NNW 06:03:47 43° WSW 06:08:45 10° S
Cosmos 1626 2.1 06:00:20 10° NNW 06:04:03 65° W 06:07:44 10° S
BREEZE-M DEB (TANK) 4.3 05:53:44 10° NW 06:05:14 36° WSW 06:08:57 10° S
Cosmos 2058 3.9 06:01:55 10° NNW 06:05:23 26° W 06:08:52 10° SSW
Atlas 2A Centaur Rocket 3.3 06:05:48 10° SW 06:08:00 16° S 06:09:29 10° SE
Cosmos 2112 Rocket 4.1 06:03:06 10° NNW 06:08:28 85° ENE 06:13:49 10° SSE
YAOGAN 1 2.8 06:05:12 10° NNE 06:09:32 77° ESE 06:13:51 10° S
DELTA 2 R/B(2) 3.2 06:10:10 10° WSW 06:11:58 85° NNW 06:14:50 10° ENE
Cosmos 1092 Rocket 4.5 06:06:58 10° N 06:13:13 68° E 06:19:22 10° SSE
Cosmos 2221 3.7 06:10:24 10° SW 06:13:43 21° WNW 06:17:03 10° NNW
Cosmos 1184 Rocket 3.0 06:10:52 10° NNW 06:14:06 50° W 06:17:18 10° S
Cosmos 1340 Rocket 4.1 06:11:41 10° NW 06:14:36 20° W 06:17:32 10° SW
Milstar 3 Cent rocket 3.8 06:11:45 10° SW 06:18:34 34° S 06:23:06 10° ESE
Cosmos 292 Rocket 4.0 06:14:30 10° NNW 06:19:08 50° WSW 06:23:45 10° S
NOSS 3-1 (A) 4.3 06:11:37 10° NW 06:19:20 60° WSW 06:27:37 10° SSE
Cosmos 1666 Rocket 3.8 06:16:50 10° NNW 06:21:10 50° W 06:25:29 10° SSW
Cosmos 1943 3.2 06:16:56 10° NNW 06:22:40 84° WSW 06:28:20 10° SSE
Cosmos 1484 Rocket 3.4 06:19:55 10° NNE 06:23:54 64° E 06:27:49 10° S
APEX 3.2 06:21:28 10° SW 06:25:32 52° WNW 06:28:47 10° N
ATLAS 2AS CENTAUR R/B 3.8 06:20:22 10° NNW 06:28:10 52° NE 06:35:23 10° SE
